Location: Unspecified
(41.5000°N, 0.0000°E)
Time: 21:23:36
(UTC+00:00)

Transit 2A - Visible Passes

Search period start: 20 June 2019 00:00
Search period end: 30 June 2019 00:00
Orbit: 593 x 966 km, 66.7° (Epoch: 20 June)

Date Brightness Start Highest point End Pass type
(mag) Time Alt. Az. Time Alt. Az. Time Alt. Az.
20 Jun 7.2 01:36:02 26° WSW 01:39:12 44° NW 01:45:12 10° NNE visible
20 Jun 8.8 03:21:55 10° NW 03:24:06 12° NNW 03:26:16 10° N visible
20 Jun 7.6 23:22:07 26° ESE 23:22:07 26° ESE 23:27:10 10° NE visible
21 Jun 6.8 01:02:34 37° WSW 01:04:59 60° NW 01:11:12 10° NNE visible
21 Jun 8.6 02:46:02 10° WNW 02:49:32 15° NW 02:52:57 10° N visible
21 Jun 8.1 22:48:36 18° E 22:48:36 18° E 22:52:19 10° ENE visible
22 Jun 6.4 00:29:03 51° SW 00:30:48 80° WNW 00:37:09 10° NNE visible
22 Jun 8.4 02:10:37 10° W 02:15:01 19° NW 02:19:20 10° N visible
22 Jun 8.4 22:15:01 12° E 22:15:01 12° E 22:16:41 10° E visible
22 Jun 6.4 23:55:29 59° S 23:56:41 76° ESE 00:03:00 10° NNE visible
23 Jun 8.2 01:35:56 12° W 01:40:35 24° NW 01:45:35 10° N visible
23 Jun 6.6 23:21:50 51° SE 23:22:39 55° ESE 23:28:46 10° NE visible
24 Jun 7.8 01:02:17 17° W 01:06:12 32° NW 01:11:43 10° NNE visible
24 Jun 7.0 22:48:07 38° ESE 22:48:39 39° ESE 22:54:26 10° NE visible
25 Jun 7.4 00:28:33 24° WSW 00:31:54 41° NW 00:37:48 10° NNE visible
25 Jun 8.9 02:15:10 10° NW 02:16:51 11° NNW 02:18:33 10° NNW visible
25 Jun 7.4 22:14:18 28° ESE 22:14:42 28° ESE 22:19:56 10° NE visible
25 Jun 6.9 23:54:44 31° WSW 23:57:40 56° NW 00:03:49 10° NNE visible
26 Jun 8.8 01:39:04 10° WNW 01:42:16 14° NW 01:45:25 10° N visible
26 Jun 7.8 21:40:23 19° ESE 21:40:49 20° ESE 21:45:09 10° ENE visible
26 Jun 6.5 23:20:49 37° SW 23:23:28 75° WNW 23:29:46 10° NNE visible
27 Jun 8.7 01:03:33 10° W 01:07:45 18° NW 01:11:52 10° N visible
27 Jun 8.1 21:06:20 13° ESE 21:06:59 13° ESE 21:09:48 10° ENE visible
27 Jun 6.3 22:46:45 38° SSW 22:49:21 81° ESE 22:55:39 10° NNE visible
28 Jun 8.4 00:28:22 10° W 00:33:18 23° NW 00:38:07 10° N visible
28 Jun 6.5 22:12:30 33° S 22:15:17 59° ESE 22:21:27 10° NE visible
28 Jun 8.1 23:53:25 10° WSW 23:58:55 30° NW 00:04:17 10° NNE visible
29 Jun 6.9 21:38:00 24° SSE 21:41:16 42° ESE 21:47:08 10° NE visible
29 Jun 7.6 23:18:40 10° WSW 23:24:36 39° NW 23:30:23 10° NNE visible
